Notices

What's New in latest Release from April 7th, 2021:

- Updated Glossary, including Speed of Maximum Gust, and Total Hourly Precipitation

- Updated national and regional climate services offices contacts and prices information

- Addition of station inventory lists for 1981-2010, 1971-2000, and 1961-1990 Normals.

If you haven't already, please take our survey and provide feedback about our website: https://eccc.sondage-survey.ca/f/LanguageSelection.aspx?s=442ca660-fcf1-47c0-95a9-59707d6fd709

Hourly Data Report for August 04, 2018

TORONTO CITY
ONTARIO
Current Station Operator: ECCC - MSC

43°40'00.000" N
79°24'00.000" W
112.50 m
6158355
71508
XTO

Download Data

Hourly Data (August 2018)
Hourly Data Report for August 4, 2018
TIME
LST
Temp Definition
°C
Dew Point Definition
°C
Rel Hum Definition
%
Precip. Amount Definition
mm

Wind Dir Definition
10's deg

Wind Spd Definition
km/h
Visibility Definition
km
Stn Press Definition
kPa
Hmdx Definition


Wind Chill Definition


Weather Definition


00:00 22.7 18.9 79 0.0 LegendMM LegendMM   100.46 29   LegendNANA
01:00 21.9 19.1 84 0.0 LegendMM LegendMM   100.39 29   LegendNANA
02:00 21.3 18.8 86 0.0 LegendMM LegendMM   100.42 28   LegendNANA
03:00 21.1 19.0 88 0.0 LegendMM LegendMM   100.42 28   LegendNANA
04:00 20.7 18.7 89 0.0 LegendMM LegendMM   100.41 27   LegendNANA
05:00 20.6 18.8 89 0.0 LegendMM LegendMM   100.44 27   LegendNANA
06:00 21.0 19.1 89 0.0 LegendMM LegendMM   100.48 28   LegendNANA
07:00 22.6 19.8 84 0.0 LegendMM LegendMM   100.56 30   LegendNANA
08:00 23.7 19.8 79 0.0 LegendMM LegendMM   100.57 31   LegendNANA
09:00 24.6 18.9 71 0.0 LegendMM LegendMM   100.58 31   LegendNANA
10:00 26.5 19.1 64 0.0 LegendMM LegendMM   100.58 33   LegendNANA
11:00 26.3 18.7 63 0.0 LegendMM LegendMM   100.58 33   LegendNANA
12:00 27.1 18.3 59 0.0 LegendMM LegendMM   100.55 33   LegendNANA
13:00 28.3 19.5 59 0.0 LegendMM LegendMM   100.52 35   LegendNANA
14:00 28.2 17.8 53 0.0 LegendMM LegendMM   100.50 34   LegendNANA
15:00 29.1 16.0 45 0.0 LegendMM LegendMM   100.48 34   LegendNANA
16:00 29.5 15.3 42 0.0 LegendMM LegendMM   100.47 34   LegendNANA
17:00 29.2 15.5 43 0.0 LegendMM LegendMM   100.47 33   LegendNANA
18:00 28.2 17.0 50 0.0 LegendMM LegendMM   100.47 33   LegendNANA
19:00 27.0 17.8 57 0.0 LegendMM LegendMM   100.48 33   LegendNANA
20:00 26.5 17.4 58 0.0 LegendMM LegendMM   100.51 32   LegendNANA
21:00 25.4 18.6 66 0.0 LegendMM LegendMM   100.55 32   LegendNANA
22:00 24.1 19.1 74 0.0 LegendMM LegendMM   100.58 31   LegendNANA
23:00 23.9 18.8 73 0.0 LegendMM LegendMM   100.55 31   LegendNANA

Notes on Data Quality.

Legend

  • E = Estimated
  • M = Missing
  • NA = Not Available*
  • [empty] = Indicates an unobserved value
Date modified: